This demonstration page uses our WeatherBlox Daily Observations layout. Learn more.

Left ArrowRight Arrow

39.51506, -84.39828

Hourly Observations for January 28, 2015

Temp ( °F °C ) Dew Point ( °F °C ) Humidity (%) Winds ( mph kmh ) Pressure ( in mb ) Visibility ( mi km ) Precip ( " mm )
12:15 am 00:15 Clear 14 -9.8 10 -12.1 83 83 Calm 30.33 1027 7 11 0.00 0.00
12:35 am 00:35 Clear with Mist and Fog 13 -10.4 9 -12.7 83 83 Calm 30.33 1027 5 8 0.00 0.00
12:55 am 00:55 Clear with Mist and Fog 14 -9.8 10 -12.1 83 83 Calm 30.33 1027 5 8 0.00 0.00
1:15 am 01:15 Clear 12 -11.2 8 -13.6 83 83 Calm 30.33 1027 7 11 0.00 0.00
1:35 am 01:35 Clear 12 -11.2 8 -13.6 83 83 Calm 30.33 1027 7 11 0.00 0.00
1:55 am 01:55 Clear 12 -11.2 7 -13.7 82 82 Calm 30.36 1028 7 11 0.00 0.00
2:15 am 02:15 Clear 10 -12 6 -14.5 82 82 Calm 30.36 1028 10 16 0.00 0.00
2:35 am 02:35 Clear 12 -11.2 8 -13.6 83 83 Calm 30.36 1028 7 11 0.00 0.00
2:55 am 02:55 Clear 12 -11.2 8 -13.6 83 83 Calm 30.36 1028 7 11 0.00 0.00
3:15 am 03:15 Clear 12 -11.2 7 -13.7 82 82 Calm 30.36 1028 7 11 0.00 0.00
3:35 am 03:35 Clear 11 -11.6 7 -14 83 83 Calm 30.36 1028 7 11 0.00 0.00
3:55 am 03:55 Clear 12 -11.2 7 -13.7 82 82 Calm 30.39 1029 7 11 0.00 0.00
4:15 am 04:15 Hazy 11 -11.6 7 -14.1 82 82 Calm 30.39 1029 5 8 0.00 0.00
4:35 am 04:35 Clear 11 -11.8 6 -14.3 82 82 Calm 30.39 1029 7 11 0.00 0.00
4:55 am 04:55 Clear 10 -12.4 5 -14.9 82 82 Calm 30.39 1029 7 11 0.00 0.00
5:15 am 05:15 Clear 10 -12 6 -14.5 82 82 Calm 30.42 1030 7 11 0.00 0.00
5:35 am 05:35 Clear 10 -12 6 -14.5 82 82 Calm 30.42 1030 7 11 0.00 0.00
5:55 am 05:55 Clear 9 -12.6 5 -15.1 82 82 Calm 30.42 1030 7 11 0.00 0.00
6:15 am 06:15 Clear 10 -12 6 -14.5 82 82 Calm 30.42 1030 7 11 0.00 0.00
6:35 am 06:35 Clear 9 -12.6 5 -15.2 81 81 NNE 3 6 30.42 1030 7 11 0.00 0.00
6:55 am 06:55 Clear 9 -12.6 5 -15.1 82 82 Calm 30.42 1030 7 11 0.00 0.00
7:15 am 07:15 Clear 9 -12.6 5 -15.2 81 81 Calm 30.42 1030 7 11 0.00 0.00
7:35 am 07:35 Clear 11 -11.8 6 -14.3 82 82 Calm 30.45 1031 7 11 0.00 0.00
7:55 am 07:55 Sunny with Mist and Fog 9 -12.6 5 -15.2 81 81 Calm 30.45 1031 5 8 0.00 0.00
8:15 am 08:15 Sunny 9 -12.6 5 -15.2 81 81 Calm 30.45 1031 7 11 0.00 0.00
8:35 am 08:35 Hazy 10 -12.3 5 -14.9 81 81 Calm 30.45 1031 5 8 0.00 0.00
8:55 am 08:55 Sunny 11 -11.4 7 -14.1 81 81 Calm 30.45 1031 7 11 0.00 0.00
9:15 am 09:15 Sunny with Mist and Fog 14 -9.8 10 -12.3 82 82 Calm 30.45 1031 5 8 0.00 0.00
9:35 am 09:35 Hazy 14 -9.8 10 -12.5 81 81 Calm 30.48 1032 5 8 0.00 0.00
9:55 am 09:55 Hazy 17 -8.5 12 -10.9 83 83 Calm 30.48 1032 4 6 0.00 0.00
10:15 am 10:15 Sunny with Mist and Fog 17 -8.3 13 -10.6 84 84 Calm 30.48 1032 5 8 0.00 0.00
10:35 am 10:35 Sunny with Mist and Fog 19 -7.1 15 -9.6 83 83 Calm 30.48 1032 5 8 0.00 0.00
10:55 am 10:55 Sunny with Mist and Fog 20 -6.9 15 -9.2 84 84 Calm 30.48 1032 5 8 0.00 0.00
11:15 am 11:15 Sunny with Mist and Fog 22 -5.6 18 -8 83 83 Calm 30.48 1032 5 8 0.00 0.00
11:35 am 11:35 Hazy 24 -4.2 19 -7.5 78 78 Calm 30.45 1031 5 8 0.00 0.00
11:55 am 11:55 Hazy 27 -2.8 18 -7.6 70 70 Calm 30.42 1030 5 8 0.00 0.00
12:15 pm 12:15 Sunny 29 -1.5 19 -7.5 64 64 Calm 30.42 1030 7 11 0.00 0.00
12:35 pm 12:35 Sunny 29 -1.5 17 -8.5 59 59 SSW 3 6 30.39 1029 7 11 0.00 0.00
12:55 pm 12:55 Sunny 29 -1.5 16 -9.1 57 57 NW 3 6 30.39 1029 10 16 0.00 0.00
1:15 pm 13:15 Sunny 31 -0.3 16 -8.9 53 53 Calm 30.39 1029 10 16 0.00 0.00
1:35 pm 13:35 Sunny 32 0 16 -9.1 51 51 ESE 6 9 30.36 1028 10 16 0.00 0.00
1:55 pm 13:55 Sunny 32 0 15 -9.3 50 50 SE 9 15 30.36 1028 10 16 0.00 0.00
2:15 pm 14:15 Sunny 34 1.2 17 -8.3 50 50 SSE 7 11 30.33 1027 10 16 0.00 0.00
2:35 pm 14:35 Sunny 34 1.2 17 -8.2 50 50 SSE 8 13 30.33 1027 10 16 0.00 0.00
2:55 pm 14:55 Sunny 34 1.2 17 -8.5 49 49 SE 8 13 30.33 1027 10 16 0.00 0.00
3:15 pm 15:15 Sunny 34 1.2 17 -8.6 48 48 SE 8 13 30.33 1027 10 16 0.00 0.00
3:35 pm 15:35 Sunny 34 1.2 17 -8.4 49 49 ESE 8 13 30.33 1027 10 16 0.00 0.00
3:55 pm 15:55 Sunny 34 1.2 17 -8.4 49 49 SE 6 9 30.30 1026 10 16 0.00 0.00
4:15 pm 16:15 Sunny 34 1.2 17 -8.4 49 49 SSE 6 9 30.30 1026 10 16 0.00 0.00
4:35 pm 16:35 Sunny 34 1.2 17 -8.3 50 50 SE 9 15 30.30 1026 10 16 0.00 0.00
4:55 pm 16:55 Sunny 34 1.2 18 -8 51 51 SE 8 13 30.30 1026 10 16 0.00 0.00
5:15 pm 17:15 Sunny 34 1.2 18 -7.9 51 51 SE 7 11 30.30 1026 10 16 0.00 0.00
5:35 pm 17:35 Sunny 34 1.2 18 -7.7 52 52 SE 7 11 30.30 1026 10 16 0.00 0.00
5:55 pm 17:55 Clear 34 1.2 18 -7.7 52 52 SE 8 13 30.30 1026 10 16 0.00 0.00
6:15 pm 18:15 Clear 34 1.2 19 -7.1 54 54 SE 7 11 30.30 1026 10 16 0.00 0.00
6:35 pm 18:35 Clear 34 1.2 19 -7.1 54 54 SE 5 7 30.30 1026 10 16 0.00 0.00
6:55 pm 18:55 Clear 34 1.2 19 -7.1 54 54 SE 7 11 30.27 1025 10 16 0.00 0.00
7:15 pm 19:15 Clear 34 1.2 20 -6.8 56 56 SSE 6 9 30.30 1026 10 16 0.00 0.00
7:35 pm 19:35 Clear 34 1.2 20 -6.5 57 57 SSE 5 7 30.27 1025 10 16 0.00 0.00
7:55 pm 19:55 Clear 34 1.2 20 -6.4 57 57 SSE 8 13 30.27 1025 10 16 0.00 0.00
8:15 pm 20:15 Clear 34 1.2 20 -6.5 57 57 SSE 6 9 30.27 1025 10 16 0.00 0.00
8:35 pm 20:35 Clear 34 1.2 21 -6.2 58 58 SE 6 9 30.27 1025 10 16 0.00 0.00
8:55 pm 20:55 Clear 34 1.2 21 -6.2 58 58 SSE 7 11 30.24 1024 10 16 0.00 0.00
9:15 pm 21:15 Clear 34 1.2 21 -6 59 59 S 3 6 30.24 1024 10 16 0.00 0.00
9:35 pm 21:35 Clear 34 1.2 21 -6.2 58 58 SSE 5 7 30.24 1024 10 16 0.00 0.00
9:55 pm 21:55 Clear 34 1.2 21 -6.1 59 59 SSE 5 7 30.24 1024 10 16 0.00 0.00
10:15 pm 22:15 Clear 34 1.2 20 -6.4 57 57 SSE 7 11 30.21 1023 10 16 0.00 0.00
10:35 pm 22:35 Clear 34 1.2 20 -6.5 57 57 SE 7 11 30.21 1023 10 16 0.00 0.00
10:55 pm 22:55 Clear 34 1.2 20 -6.5 57 57 SSE 8 13 30.21 1023 10 16 0.00 0.00
11:15 pm 23:15 Clear 34 1.2 20 -6.6 56 56 S 6 9 30.18 1022 10 16 0.00 0.00
11:35 pm 23:35 Clear 34 1.2 20 -6.5 57 57 SSE 8 13 30.18 1022 10 16 0.00 0.00
11:55 pm 23:55 Clear 34 1.2 20 -6.4 57 57 S 7 11 30.18 1022 10 16 0.00 0.00

Powered by AerisWeather